EW5761 Cardo FR current weather conditions

sailwx.info

Wind from 261 at 0 knots gusting 2

Air temperature 27.2° C
Dewpoint 15.2° C

Last reported at 2020-Aug-07 18:03 UTC.
Time now 2020-Aug-07 18:56 UTC

Location: N 42°42' E 009°26'.
View on Google Maps.

See reports from other nearby stations

  
Tides and Currents Weather Stations Pressure Air Temp Water Temp Dewpoint Dewpoint Depression Visibility Wind Speed Wind Dir Waves Ship Positions
date/time (UTC)wind fromknots sea level pressurealtimeterstation pressurevisibilityair tempwater tempwave heightnotes
2020-Aug-07 18:03 261 0 gusting 2 27.2
2020-Aug-07 17:53 259 0 gusting 2 27.2
2020-Aug-07 17:45 26.7
2020-Aug-07 17:43 269 0 gusting 0 27.2
2020-Aug-07 17:33 260 27.2
2020-Aug-07 17:23 248 27.2
2020-Aug-07 17:16 26.7
2020-Aug-07 17:13 238 27.2
2020-Aug-07 17:03 234 26.7
2020-Aug-07 16:53 244 0 gusting 3 26.7
2020-Aug-07 16:46 099 26.7
2020-Aug-07 16:43 304 0 gusting 0 27.2
2020-Aug-07 16:33 320 27.8
2020-Aug-07 16:23 283 27.8
2020-Aug-07 16:15 27.8
2020-Aug-07 16:13 281 0 gusting 1 27.8
2020-Aug-07 16:03 284 28.3
2020-Aug-07 15:53 281 0 gusting 0 28.3
2020-Aug-07 15:46 27.8
2020-Aug-07 15:43 282 0 gusting 1 28.3
2020-Aug-07 15:33 277 28.3
2020-Aug-07 15:23 285 0 gusting 1 28.9
2020-Aug-07 15:15 28.9
2020-Aug-07 15:13 263 29.4
2020-Aug-07 15:03 316 29.4
2020-Aug-07 14:53 314 29.4
2020-Aug-07 14:46 086 29.4
2020-Aug-07 14:43 296 0 gusting 2 29.4
2020-Aug-07 14:33 297 0 gusting 2 30.0
2020-Aug-07 14:23 239 0 gusting 2 30.0
2020-Aug-07 14:16 30.0
2020-Aug-07 14:13 298 0 gusting 2 30.0
2020-Aug-07 14:03 281 0 gusting 2 30.6
2020-Aug-07 13:53 293 0 gusting 2 30.6
2020-Aug-07 13:46 30.0
2020-Aug-07 13:43 274 1 gusting 3 30.6
2020-Aug-07 13:33 278 0 gusting 2 30.6
2020-Aug-07 13:23 300 0 gusting 1 30.6
2020-Aug-07 13:15 30.0
2020-Aug-07 13:13 327 0 gusting 2 30.6
2020-Aug-07 13:03 279 1 gusting 5 30.0
2020-Aug-07 12:53 269 1 gusting 2 30.6
2020-Aug-07 12:45 30.0
2020-Aug-07 12:43 276 0 gusting 3 30.0
2020-Aug-07 12:33 350 1 gusting 4 30.6
2020-Aug-07 12:23 265 0 gusting 3 30.6
2020-Aug-07 12:16 30.0
2020-Aug-07 12:13 281 1 gusting 2 30.0
2020-Aug-07 12:03 291 1 gusting 6 30.0
2020-Aug-07 11:53 280 0 gusting 3 30.6
2020-Aug-07 11:45 043 0 gusting 6 30.6
2020-Aug-07 11:43 291 0 gusting 2 30.6
2020-Aug-07 11:33 295 0 gusting 3 30.6
2020-Aug-07 11:23 065 1 gusting 6 30.6
2020-Aug-07 11:16 30.0
2020-Aug-07 11:13 281 2 gusting 5 30.6
2020-Aug-07 11:03 080 1 gusting 3 31.1
2020-Aug-07 10:53 306 0 gusting 5 31.1
2020-Aug-07 10:46 30.6
2020-Aug-07 10:43 074 0 gusting 4 30.6
2020-Aug-07 10:33 325 1 gusting 5 30.6
2020-Aug-07 10:23 269 0 gusting 3 31.1
2020-Aug-07 10:16 30.6
2020-Aug-07 10:13 293 0 gusting 5 30.6
2020-Aug-07 10:03 077 1 gusting 3 30.0
2020-Aug-07 09:53 266 1 gusting 2 30.6
2020-Aug-07 09:47 30.6
2020-Aug-07 09:43 274 0 gusting 2 31.1
2020-Aug-07 09:33 293 0 gusting 1 30.6
2020-Aug-07 09:23 293 29.4
2020-Aug-07 09:16 29.4
2020-Aug-07 09:13 286 1 gusting 3 30.0
2020-Aug-07 09:03 283 0 gusting 3 29.4
2020-Aug-07 08:53 259 0 gusting 2 28.9
2020-Aug-07 08:46 28.3
2020-Aug-07 08:43 287 0 gusting 5 28.9
2020-Aug-07 08:33 297 1 gusting 2 29.4
2020-Aug-07 08:23 119 0 gusting 3 28.9
2020-Aug-07 08:16 28.9
2020-Aug-07 08:13 272 0 gusting 3 28.9
2020-Aug-07 08:03 274 0 gusting 2 28.9
2020-Aug-07 07:53 293 1 gusting 2 28.9
2020-Aug-07 07:45 27.8
2020-Aug-07 07:43 304 0 gusting 2 27.8
2020-Aug-07 07:33 310 1 gusting 2 27.8
2020-Aug-07 07:23 288 0 gusting 2 27.8
2020-Aug-07 07:15 27.2
2020-Aug-07 07:13 305 0 gusting 2 27.8
2020-Aug-07 07:03 269 27.2
2020-Aug-07 06:53 307 0 gusting 3 26.7
2020-Aug-07 06:45 26.7
2020-Aug-07 06:43 271 0 gusting 2 26.7
2020-Aug-07 06:33 294 0 gusting 2 26.7
2020-Aug-07 06:23 297 26.1
2020-Aug-07 06:16 25.6
2020-Aug-07 06:13 308 26.1
2020-Aug-07 06:03 276 0 gusting 2 25.0
2020-Aug-07 05:53 302 0 gusting 2 25.0
2020-Aug-07 05:45 24.4
2020-Aug-07 05:43 289 0 gusting 3 25.0
2020-Aug-07 05:33 286 1 gusting 3 24.4
2020-Aug-07 05:23 265 1 gusting 3 24.4
2020-Aug-07 05:15 311 23.9
2020-Aug-07 05:13 259 1 gusting 4 24.4
2020-Aug-07 05:03 299 1 gusting 3 23.9
2020-Aug-07 04:53 289 0 gusting 3 23.9
2020-Aug-07 04:46 23.3
2020-Aug-07 04:43 295 1 gusting 6 23.3
2020-Aug-07 04:33 294 0 gusting 4 23.3
2020-Aug-07 04:23 294 0 gusting 3 23.3
2020-Aug-07 04:16 23.3
2020-Aug-07 04:13 283 0 gusting 6 23.3
2020-Aug-07 04:03 290 0 gusting 4 23.3
2020-Aug-07 03:53 293 0 gusting 4 23.3
2020-Aug-07 03:45 288 0 gusting 7 22.8
2020-Aug-07 03:43 307 0 gusting 3 23.3
2020-Aug-07 03:33 304 1 gusting 3 22.8
2020-Aug-07 03:23 290 0 gusting 2 22.8
2020-Aug-07 03:16 22.8
2020-Aug-07 03:13 328 23.3
2020-Aug-07 03:03 263 0 gusting 2 23.3
2020-Aug-07 02:53 264 23.3
2020-Aug-07 02:45 22.8
2020-Aug-07 02:43 301 0 gusting 3 23.3
2020-Aug-07 02:33 288 2 gusting 5 23.3
2020-Aug-07 02:23 284 0 gusting 4 23.3
2020-Aug-07 02:16 23.3
2020-Aug-07 02:13 289 1 gusting 6 23.3
2020-Aug-07 02:03 276 1 gusting 3 23.3
2020-Aug-07 01:53 257 1 gusting 5 23.3
2020-Aug-07 01:46 23.3
2020-Aug-07 01:43 292 0 gusting 3 23.9
2020-Aug-07 01:33 275 0 gusting 5 23.9
2020-Aug-07 01:23 281 0 gusting 5 23.9
2020-Aug-07 01:16 23.3
2020-Aug-07 01:13 288 2 gusting 5 23.9
2020-Aug-07 01:03 267 0 gusting 5 23.9
2020-Aug-07 00:53 075 1 gusting 3 23.9
2020-Aug-07 00:46 286 3 gusting 13 23.3
2020-Aug-07 00:43 287 23.9
2020-Aug-07 00:33 021 1 gusting 4 23.9
2020-Aug-07 00:23 238 0 gusting 2 24.4
2020-Aug-07 00:16 275 1 gusting 8 23.9
2020-Aug-07 00:13 229 0 gusting 5 24.4
2020-Aug-07 00:03 303 1 gusting 6 24.4
2020-Aug-06 23:53 278 0 gusting 2 23.9
2020-Aug-06 23:46 314 23.9
2020-Aug-06 23:43 128 0 gusting 6 23.9
2020-Aug-06 23:33 156 0 gusting 1 23.3
2020-Aug-06 23:23 298 23.9
2020-Aug-06 23:16 23.3
2020-Aug-06 23:13 136 0 gusting 1 23.9
2020-Aug-06 23:03 250 24.4
2020-Aug-06 22:53 285 0 gusting 4 24.4
2020-Aug-06 22:46 23.9
2020-Aug-06 22:43 238 0 gusting 1 24.4
2020-Aug-06 22:33 231 24.4
2020-Aug-06 22:23 247 24.4
2020-Aug-06 22:16 24.4
2020-Aug-06 22:13 243 0 gusting 1 25.0
2020-Aug-06 22:03 258 25.0
2020-Aug-06 21:53 266 25.0
2020-Aug-06 21:46 283 25.0
2020-Aug-06 21:43 280 25.6
2020-Aug-06 21:33 281 0 gusting 2 25.0
2020-Aug-06 21:23 259 25.6
2020-Aug-06 21:15 287 25.0
2020-Aug-06 21:13 288 0 gusting 3 25.6
2020-Aug-06 21:03 276 25.6
2020-Aug-06 20:53 281 1 gusting 3 25.6
2020-Aug-06 20:46 286 25.0
2020-Aug-06 20:43 277 0 gusting 2 25.6
2020-Aug-06 20:33 288 1 gusting 4 25.6
2020-Aug-06 20:23 286 1 gusting 5 25.6
2020-Aug-06 20:16 25.6
2020-Aug-06 20:13 263 1 gusting 4 25.6
2020-Aug-06 20:03 306 0 gusting 3 25.6
2020-Aug-06 19:53 253 0 gusting 6 25.6
2020-Aug-06 19:46 25.0
2020-Aug-06 19:43 277 0 gusting 2 25.6
2020-Aug-06 19:33 276 0 gusting 3 25.6
2020-Aug-06 19:23 285 0 gusting 3 25.6
2020-Aug-06 19:15 25.0
2020-Aug-06 19:13 315 1 gusting 4 25.6
2020-Aug-06 19:03 250 0 gusting 1 25.0
2020-Aug-06 18:53 265 0 gusting 1 25.0
2020-Aug-06 18:45 25.0
2020-Aug-06 18:43 270 25.0
2020-Aug-06 18:33 231 25.0
2020-Aug-06 18:23 272 0 gusting 1 25.0
2020-Aug-06 18:16 23.9
2020-Aug-06 18:13 231 0 gusting 1 23.9
2020-Aug-06 18:03 226 0 gusting 1 23.9
2020-Aug-06 17:53 204 0 gusting 0 23.3
2020-Aug-06 17:46 23.3
2020-Aug-06 17:43 203 0 gusting 0 23.9
2020-Aug-06 17:33 186 0 gusting 1 23.9
2020-Aug-06 17:23 237 23.9
2020-Aug-06 17:17 210 0 gusting 2 23.9
2020-Aug-06 17:13 153 0 gusting 0 23.9
2020-Aug-06 17:03 156 24.4
2020-Aug-06 16:53 096 24.4
2020-Aug-06 16:46 24.4
2020-Aug-06 16:43 064 25.0
2020-Aug-06 16:33 065 25.6
2020-Aug-06 16:23 024 25.6
2020-Aug-06 16:16 25.6
2020-Aug-06 16:13 024 26.1
2020-Aug-06 16:03 228 0 gusting 2 26.1
2020-Aug-06 15:53 321 25.6
2020-Aug-06 15:46 25.0
2020-Aug-06 15:43 065 25.6
2020-Aug-06 15:33 065 25.6
2020-Aug-06 15:24 065 26.1
2020-Aug-06 15:16 26.1
2020-Aug-06 15:13 065 26.1
2020-Aug-06 15:03 046 27.2
2020-Aug-06 14:53 057 27.8
2020-Aug-06 14:43 085 27.8
2020-Aug-06 14:33 008 27.8
2020-Aug-06 14:23 082 28.3
2020-Aug-06 14:13 307 0 gusting 1 28.3
2020-Aug-06 14:03 058 28.3
2020-Aug-06 13:53 068 0 gusting 2 28.9
2020-Aug-06 13:43 061 29.4
2020-Aug-06 13:33 068 29.4
2020-Aug-06 13:23 053 0 gusting 2 28.9
2020-Aug-06 13:13 067 29.4
2020-Aug-06 13:03 290 0 gusting 2 29.4
2020-Aug-06 12:53 087 1 gusting 3 29.4
2020-Aug-06 12:45 147 0 gusting 6 29.4
2020-Aug-06 12:43 336 29.4
2020-Aug-06 12:33 319 0 gusting 1 29.4
2020-Aug-06 12:23 058 29.4
2020-Aug-06 12:16 130 0 gusting 5 29.4
2020-Aug-06 12:13 012 29.4
2020-Aug-06 12:03 090 0 gusting 2 29.4
2020-Aug-06 11:53 339 0 gusting 2 29.4
2020-Aug-06 11:45 106 0 gusting 6 30.0
2020-Aug-06 11:43 107 0 gusting 1 30.0
2020-Aug-06 11:33 074 0 gusting 1 30.6
2020-Aug-06 11:23 146 30.6
2020-Aug-06 11:16 120 29.4
2020-Aug-06 11:13 082 0 gusting 3 30.0
2020-Aug-06 11:03 288 0 gusting 2 30.0
2020-Aug-06 10:53 056 0 gusting 2 30.0
2020-Aug-06 10:45 30.0
2020-Aug-06 10:43 091 0 gusting 1 30.0
2020-Aug-06 10:33 049 0 gusting 2 30.6
2020-Aug-06 10:23 288 0 gusting 2 30.6
2020-Aug-06 10:15 30.0
2020-Aug-06 10:13 305 0 gusting 2 30.0
2020-Aug-06 10:03 293 1 gusting 3 30.0
2020-Aug-06 09:53 297 0 gusting 0 30.0
2020-Aug-06 09:45 30.0
2020-Aug-06 09:43 088 0 gusting 2 30.0
2020-Aug-06 09:33 072 0 gusting 1 30.6
2020-Aug-06 09:23 286 29.4
2020-Aug-06 09:16 28.9
2020-Aug-06 09:13 309 0 gusting 2 29.4
2020-Aug-06 09:03 176 0 gusting 3 29.4
2020-Aug-06 08:53 075 0 gusting 2 28.9
2020-Aug-06 08:46 28.3
2020-Aug-06 08:43 294 0 gusting 3 28.9
2020-Aug-06 08:33 129 29.4
2020-Aug-06 08:23 297 29.4
2020-Aug-06 08:16 28.9
2020-Aug-06 08:13 318 0 gusting 2 29.4
2020-Aug-06 08:03 292 0 gusting 1 29.4
2020-Aug-06 07:53 338 30.0
2020-Aug-06 07:46 111 29.4
2020-Aug-06 07:43 061 30.0
2020-Aug-06 07:33 081 29.4
2020-Aug-06 07:23 146 28.9
2020-Aug-06 07:16 096 27.8
2020-Aug-06 07:13 101 27.8
2020-Aug-06 07:03 297 0 gusting 0 28.3
2020-Aug-06 06:53 057 27.8
2020-Aug-06 06:46 26.7
2020-Aug-06 06:43 075 26.7
2020-Aug-06 06:33 287 25.0
2020-Aug-06 06:23 302 25.0
2020-Aug-06 06:15 24.4
2020-Aug-06 06:13 330 24.4
2020-Aug-06 06:03 102 23.3
2020-Aug-06 05:53 221 22.8
2020-Aug-06 05:46 21.7
2020-Aug-06 05:43 219 22.2
2020-Aug-06 05:33 201 21.7
2020-Aug-06 05:23 200 21.1
2020-Aug-06 05:16 20.0
2020-Aug-06 05:13 201 20.6
2020-Aug-06 05:03 201 20.0
2020-Aug-06 04:53 201 19.4
2020-Aug-06 04:46 18.9
2020-Aug-06 04:43 201 0 gusting 0 18.9
2020-Aug-06 04:33 201 0 gusting 0 18.9
2020-Aug-06 04:23 202 0 gusting 0 18.9
2020-Aug-06 04:16 18.9
2020-Aug-06 04:13 203 0 gusting 0 18.9
2020-Aug-06 04:03 203 0 gusting 0 19.4
2020-Aug-06 03:53 203 0 gusting 0 19.4
2020-Aug-06 03:46 19.4
2020-Aug-06 03:43 203 0 gusting 0 20.0
2020-Aug-06 03:33 203 20.0
2020-Aug-06 03:23 152 20.6
2020-Aug-06 03:15 20.6
2020-Aug-06 03:13 240 20.6
2020-Aug-06 03:03 115 20.6
2020-Aug-06 02:53 224 20.6
2020-Aug-06 02:46 20.6
2020-Aug-06 02:43 204 0 gusting 1 21.1
2020-Aug-06 02:33 279 21.1
2020-Aug-06 02:23 278 0 gusting 1 21.1
2020-Aug-06 02:15 21.1
2020-Aug-06 02:13 269 1 gusting 3 21.7
2020-Aug-06 02:03 285 21.7
2020-Aug-06 01:53 233 0 gusting 1 21.7
2020-Aug-06 01:46 21.1
2020-Aug-06 01:43 277 0 gusting 2 21.7
2020-Aug-06 01:33 098 0 gusting 2 21.7
2020-Aug-06 01:23 279 22.2
2020-Aug-06 01:16 300 0 gusting 9 21.7
2020-Aug-06 01:13 295 0 gusting 3 22.2
2020-Aug-06 01:03 272 0 gusting 2 22.2
2020-Aug-06 00:53 270 0 gusting 5 22.2
2020-Aug-06 00:46 21.7
2020-Aug-06 00:43 295 2 gusting 6 22.2
2020-Aug-06 00:33 246 1 gusting 5 22.2
2020-Aug-06 00:23 277 21.7
2020-Aug-06 00:16 301 0 gusting 7 21.7
2020-Aug-06 00:13 276 0 gusting 3 21.7
2020-Aug-06 00:03 275 0 gusting 2 21.7
2020-Aug-05 23:53 283 0 gusting 3 21.7
2020-Aug-05 23:47 21.7
2020-Aug-05 23:43 259 0 gusting 3 22.2
2020-Aug-05 23:33 269 0 gusting 2 22.2
2020-Aug-05 23:23 271 0 gusting 3 22.2
2020-Aug-05 23:16 283 0 gusting 9 21.7
2020-Aug-05 23:13 276 0 gusting 2 21.7
2020-Aug-05 23:03 268 22.2
2020-Aug-05 22:53 265 22.2
2020-Aug-05 22:46 21.7
2020-Aug-05 22:43 281 0 gusting 2 22.2
2020-Aug-05 22:33 284 0 gusting 2 22.2
2020-Aug-05 22:23 158 0 gusting 4 22.8
2020-Aug-05 22:15 301 0 gusting 8 22.8
2020-Aug-05 22:13 329 0 gusting 3 22.8
2020-Aug-05 22:03 273 0 gusting 2 22.8
2020-Aug-05 21:53 340 0 gusting 2 23.3
2020-Aug-05 21:46 281 1 gusting 6 22.8
2020-Aug-05 21:43 289 23.3
2020-Aug-05 21:33 250 0 gusting 3 22.8
2020-Aug-05 21:23 279 22.8
2020-Aug-05 21:16 22.8
2020-Aug-05 21:13 240 22.8
2020-Aug-05 21:03 148 0 gusting 3 23.3
2020-Aug-05 20:53 265 23.3
2020-Aug-05 20:46 22.2
2020-Aug-05 20:43 274 0 gusting 2 22.2
2020-Aug-05 20:33 262 22.8
2020-Aug-05 20:23 273 22.8
2020-Aug-05 20:15 22.2
2020-Aug-05 20:13 233 0 gusting 0 22.8
2020-Aug-05 20:03 252 23.3
2020-Aug-05 19:53 274 0 gusting 2 22.8
2020-Aug-05 19:46 21.7
2020-Aug-05 19:43 162 0 gusting 0 21.7
2020-Aug-05 19:33 160 22.2
2020-Aug-05 19:23 287 22.8
2020-Aug-05 19:16 22.2
2020-Aug-05 19:13 221 22.8
2020-Aug-05 19:03 212 0 gusting 0 22.2
2020-Aug-05 18:53 230 0 gusting 0 22.2
2020-Aug-05 18:46 21.7
2020-Aug-05 18:43 243 0 gusting 0 22.2
2020-Aug-05 18:33 260 0 gusting 0 22.8
2020-Aug-05 18:23 228 0 gusting 1 22.8
2020-Aug-05 18:16 22.8
2020-Aug-05 18:13 229 0 gusting 1 23.3
2020-Aug-05 18:03 197 23.3